User: anonymous   Login
Location: Unspecified
(0.0000°N, 0.0000°E)
Time: 12:28:21
(UTC+00:00)
Language:

N. Korean satellite - Orbit

View from above orbital plane
View from above orbital plane
View from above satellite
View from above satellite

Ground track
Ground track

The orbit data is extracted from the following two-line orbital elements,

1 39026U 12072A   16209.54288049  .00001594  00000-0  67564-4 0  9991
2 39026  97.2466 232.4015 0040701 243.9661 115.7383 15.23854993200522
Epoch (UTC): 27 July 2016 13:01:44
Eccentricity: 0.0040701
inclination: 97.2466°
perigee height: 466 km
apogee height: 522 km
right ascension of ascending node: 232.4015°
argument of perigee: 243.9661°
revolutions per day: 15.23854993
mean anomaly at epoch: 115.7383°
orbit number at epoch: 20052

The dashed part of the orbit path shows where the satellite is in the earth's shadow,  

DLR